星链-36385(STARLINK-36385)

导读

STARLINK-36385是美国SpaceX公司星链星座的一员,于2026年2月7日发射入轨。星链计划旨在构建全球低轨卫星互联网,为偏远地区等传统网络覆盖不足区域提供高速低延迟宽带服务。作为星链扩张阶段的新增卫星,STARLINK-36385继承了新一代技术,助力星座持续完善全球覆盖能力,推动天基互联网基础设施建设。

基本信息
目录编号:
67717
目录名称:
STARLINK-36385
国际标识:
2026-025AA
轨道中心:
EARTH
卫星名称:
星链-36385
卫星全名:
星链-36385(STARLINK-36385)
卫星状态:
在轨 (已飞行126 天)
发射日期:
2026-02-07 UTC
国别 :
美国 (US)
星等 :
--
轨道信息
数据来源 国际轨道数据
星历时间: 2026-06-13T03:47:17+0800
8小时前
查看轨道信息
半长轴: 6843.635km
偏心率: 0.0002571
轨道倾角: 97.286°
近地点辐角 83.538°
升交点赤经 275.196°
平近点角 276.616°
近地点: 463.738km
远地点: 467.258km
周期: 93.905分钟
每日圈数: 15.334604
详细信息
固有亮度:
5
最大亮度:
2.5
卫星平台:
Starlink V1.0
覆盖范围:
全球
运营商:
太空探索技术公司
运营商所在国:
美国
制造商(研发单位):
太空探索技术公司
制造商所在国:
美国
使用方式:
暂无
卫星简介
Starlink 计划是 SpaceX 推出的全球卫星互联网项目,通过发射低轨道卫星,为全球尤其是偏远地区提供高速、低延迟的互联网服务。自 2019 年起,Starlink 已部署数千颗卫星,旨在缩小全球数字鸿沟,推动互联网普及。该项目还为军事、航空等行业提供通信支持,带来广泛经济效益。
2D轨道图
3D轨道图
轨道高度分析图
轨道倾角分析图
轨道综合分析图
查看轨道综合分析图